#timestamp,LO_Frequency,Hit,StdDev 
1699005615.4,286046972.3,N
1699005635.2,286046969.0,N
1699005655.1,286046965.3,N
1699005656.0,286046965.3,N
1699005675.8,286046965.1,N
1699005695.6,286046960.8,N
1699005715.5,286046958.0,N
1699005735.3,286046953.8,N
1699005755.1,286046956.0,N
1699005775.9,286046952.5,N
1699005795.7,286046952.2,N
1699005815.6,286046956.4,N
1699005835.4,286046952.3,N
1699005855.2,286046948.7,N
1699005875.1,286046947.9,N
1699005876.0,286046947.9,N
1699005895.8,286046944.4,N
1699005915.7,286046944.8,N
1699005935.5,286046949.4,N
1699005955.3,286046947.6,N
1699005975.2,286046944.1,N
1699005995.0,286046946.7,N
1699005995.9,286046946.7,N
1699006015.8,286046941.2,Y
1699006035.6,286046971.1,P
1699006055.4,286046972.6,P
1699006075.3,286046978.6,P
1699006095.1,286046985.1,N
1699006115.8,286046980.5,N
1699006135.7,286046984.7,N
1699006155.5,286046983.5,N
1699006175.4,286046981.9,N
1699006195.2,286046981.3,N
1699006215.0,286046975.7,Y
1699006215.9,286046975.7,P
1699006235.8,286046998.4,N
1699006255.6,286046996.5,N
1699006275.5,286046996.3,N
1699006295.3,286046995.9,N
1699006315.1,286046991.8,N
1699006335.9,286046993.7,N
1699006355.7,286046992.0,N
1699006375.5,286046994.6,N
1699006395.4,286046990.7,N
1699006415.2,286046994.8,N
1699006435.1,286046995.7,N
1699006436.0,286046995.7,N
1699006455.8,286046996.2,N
1699006475.6,286046996.4,N
1699006495.5,286046998.8,N
1699006515.3,286046997.0,N
1699006535.2,286046993.8,N
1699006555.9,286046988.6,N
1699006575.7,286046989.6,N
1699006595.6,286046988.6,N
1699006615.4,286046992.5,N
1699006635.2,286046991.5,N
1699006655.1,286046992.4,N
1699006656.0,286046992.4,N
1699006675.8,286046992.0,N
1699006695.7,286046987.0,N
1699006715.5,286046986.3,N
1699006735.3,286046991.1,N
1699006755.2,286046987.5,N
1699006775.0,286046985.1,Y
1699006775.9,286046985.1,P
1699006795.8,286046989.1,N
1699006815.6,286046987.2,P
1699006835.4,286046989.7,Y
1699006855.3,286046996.9,P
1699006875.1,286047003.1,N
1699006895.9,286047002.0,N
1699006915.7,286047006.0,N
1699006935.5,286047009.3,N
1699006955.4,286047013.3,N
1699006975.2,286047009.8,N
1699006995.0,286047006.5,N
1699006995.9,286047006.5,N
1699007015.8,286047005.5,N
1699007035.6,286047009.0,N
1699007055.5,286047007.6,N
1699007075.3,286047005.7,N
1699007095.1,286047003.1,N
1699007115.9,286047009.0,N
1699007135.7,286047006.2,N
1699007155.5,286047005.8,N
1699007175.4,286047008.6,N
1699007195.2,286047008.8,N
1699007215.1,286047006.0,N
1699007216.0,286047006.0,N
1699007235.8,286047001.7,N
1699007255.6,286046998.4,N
1699007275.5,286046999.2,N
1699007295.3,286046996.3,N
1699007315.1,286046997.5,N
1699007335.9,286046995.6,N
1699007355.7,286046998.8,N
1699007375.6,286047001.1,N
1699007395.4,286046996.5,N
1699007415.2,286046999.0,N
1699007435.1,286046999.3,N
1699007436.0,286046999.3,N
1699007455.8,286046996.0,N
1699007475.6,286046994.4,N
1699007495.5,286046992.8,N
1699007515.3,286046993.0,N
1699007535.2,286046988.8,N
1699007555.9,286046996.4,N
1699007575.7,286046995.9,N
1699007595.6,286046992.1,N
1699007615.4,286046990.3,N
1699007635.2,286046986.9,N
1699007655.1,286046985.6,N
1699007656.0,286046985.6,N
1699007675.8,286046986.6,N
1699007695.7,286046986.3,N
1699007715.5,286046986.8,N
1699007735.3,286046982.2,N
1699007755.2,286046980.8,Y
1699007775.0,286046989.3,P
1699007775.9,286046989.3,P
1699007795.8,286046985.9,P
1699007815.6,286046984.3,Y
1699007835.4,286046995.5,P
1699007855.3,286046998.5,N
1699007875.1,286047002.8,N
1699007895.8,286047001.2,N
1699007915.7,286047000.0,N
1699007935.5,286046999.9,N
1699007955.4,286046999.0,N
1699007975.2,286047000.5,N
1699007995.0,286046998.9,N
1699007995.9,286046998.9,N
1699008015.8,286046999.5,N
1699008035.6,286046998.3,N
1699008055.4,286047002.8,N
1699008075.3,286047002.5,N
1699008095.1,286046998.7,N
1699008115.9,286046996.7,N
1699008135.7,286046996.3,N
1699008155.5,286046992.1,N
1699008175.4,286046990.1,Y
1699008195.2,286046992.0,P
1699008215.1,286046992.0,N
1699008216.0,286046992.0,N
1699008235.8,286046993.7,N
1699008255.6,286046996.4,N
1699008275.5,286046997.5,N
1699008295.3,286046996.3,N
1699008315.1,286046993.8,N
1699008335.9,286046996.3,N
1699008355.7,286046996.3,N
1699008375.6,286046994.4,N
1699008395.4,286046996.0,N
1699008415.2,286046996.2,N
1699008435.1,286046994.2,N
1699008436.0,286046994.2,N
1699008455.8,286046995.6,N
1699008475.7,286046998.1,N
1699008495.5,286046999.1,N
1699008515.3,286046999.1,N
1699008535.2,286046998.0,N
1699008555.0,286046996.0,N
1699008555.9,286046996.0,N
1699008575.7,286046992.3,Y
1699008595.6,286046997.6,P
1699008615.4,286046997.0,P
1699008635.3,286046997.7,N
1699008655.1,286047000.6,N
1699008656.0,286047000.6,N
1699008675.8,286047003.7,N
1699008695.7,286046999.0,N
1699008715.5,286046999.5,N
1699008735.3,286046997.2,N
1699008755.2,286046996.3,N
1699008775.0,286046997.5,N
1699008775.9,286046997.5,N
1699008795.8,286046995.4,N
1699008815.6,286046996.9,N
1699008835.4,286046998.4,N
1699008855.3,286046999.4,N
1699008875.1,286046995.0,N
1699008895.9,286046992.9,Y
1699008915.7,286046992.1,P
1699008935.5,286046992.1,N
1699008955.4,286046996.1,N
1699008975.2,286046997.2,N
1699008995.0,286046995.2,N
1699008995.9,286046995.2,N
1699009015.8,286047001.9,N
1699009035.6,286047004.6,N
1699009055.5,286047010.8,N
1699009075.3,286047014.0,N
1699009095.1,286047019.6,N
1699009115.9,286047014.4,N
1699009135.7,286047014.5,N
1699009155.5,286047016.5,N
1699009175.4,286047016.3,N
1699009195.2,286047013.4,N
